Weather in Bugulma

Russia / Republic of Tatarstan     54°32′11″N   52°47′22″E
temp.,
°C
wind,
m/s
gust,
m/s
humid.,
%
clouds,
%
prec.,
mm/h
press.,
hPa
HPBL,
m
28 october, thu
thu2800:00+1sw816625 0.0 1015505
03:00+1sw81764100 0.0 1014528
06:00+1wsw9167181 0.0 1013683
09:00+1wsw81590100 0.1 1014644
12:00+3wsw71279100 0.0 1014622
15:00+4wsw61274100 0.0 1014738
18:00+3sw61276100 0.0 1015415
21:00+3sw51281100 0.0 1015354
29 october, fri
fri2900:00+3wsw4983100 0.0 1015402
03:00+3wsw3789100 0.3 1016533
06:00+3nnw4696100 0.6 1018800
09:000nne5670100 0.8 1023459
12:00+1ne45455 0.0 1025619
15:00+1ne34435 0.0 1027531
18:00−2e115372 0.0 102916
21:00−2s2253100 0.0 102925
30 october, sat
sat3000:00−2ssw3856100 0.0 1029196
03:00−1sw51273100 0.0 1027351
06:00+1sw7157998 0.0 1026448
09:00+2sw81680100 0.0 1024553
12:00+6wsw91575100 0.0 1023619
15:00+6wsw81682100 0.0 1022573
18:00+5w71691100 0.0 1023449
21:00+5w6139538 0.0 1023338
31 october, sun
sun3100:00+5wnw4998100 0.0 1024286
03:00+5w3897100 0.0 1026216
06:00+5w2696100 0.0 1026168
09:00+6wsw3789100 0.0 1027290
12:00+8w588064 0.0 1027723
15:00+7wsw5992100 0.0 1026546
18:00+7wsw6118959 0.0 1026462
21:00+6wsw6158292 0.0 1025320
1 november, mon
mon100:00+5w6148462 0.0 1025298
03:00+4w5138786 0.0 1025272
06:00+3w5138995 0.0 1025262
09:00+5w6147681 0.0 1025389
12:00+8w61261100 0.0 1024510
15:00+8w61365100 0.0 1023452
18:00+6w61471100 0.0 1023360
21:00+5w61473100 0.0 1023333